SCP
24 26 31 38 43 42 42 46 53 58 56 51 48 41 30 20 14 12 11 9 8 10 21 37 47 45 40 43 51 57 59 56 46 37 33 31 32 30 25 21 16 13 12
20 23 30 41 49 48 46 46 51 55 52 44 40 37 28 19 14 14 15 14 10 11 20 38 48 46 42 45 56 63 61 52 39 31 27 27 30 31 28 24 20 17 15
15 20 29 41 51 55 54 50 48 49 46 39 33 30 24 18 18 22 27 25 18 13 21 39 50 48 46 51 59 62 56 43 31 24 20 20 25 31 31 28 24 21 18
11 17 25 35 46 57 62 58 50 46 43 38 32 25 20 19 25 38 51 51 36 21 23 39 49 49 50 53 55 52 46 35 26 21 15 13 20 29 32 29 24 20 18
7 12 19 27 40 56 65 65 59 52 46 40 32 24 20 23 35 56 76 81 65 41 33 41 47 46 47 48 46 43 38 31 24 18 11 9 17 28 31 27 22 17 15
4 7 12 19 33 53 66 70 65 60 53 44 35 29 28 33 46 65 82 90 85 67 52 51 48 43 41 40 37 35 32 27 22 15 10 12 20 28 28 23 19 15 13
2 4 7 12 25 46 65 72 70 64 58 49 41 39 40 43 50 59 69 80 90 90 80 69 54 41 35 32 30 29 26 21 18 13 13 19 26 29 26 21 17 14 12
2 3 6 8 16 34 55 68 67 62 57 51 48 46 43 44 46 50 58 71 91 108 106 85 59 41 32 28 26 22 17 14 15 15 17 24 28 28 26 22 17 13 10
1 3 7 10 14 25 40 53 56 53 50 48 46 43 38 35 36 42 51 63 86 111 115 90 59 41 30 23 18 12 8 11 16 18 19 21 24 26 25 22 16 11 7
1 3 8 14 19 25 33 39 41 41 38 35 34 31 26 24 26 31 39 49 68 91 98 81 56 36 22 11 7 3 3 10 17 18 16 16 19 22 21 17 11 6 4
1 2 8 16 24 31 36 38 38 35 30 25 21 18 16 18 20 22 25 31 44 58 66 62 46 25 9 3 0 0 2 8 14 15 12 11 13 16 14 9 4 2 1
0 1 5 14 24 33 41 45 45 42 35 27 20 17 16 18 19 19 19 21 25 29 33 37 30 13 2 0 0 0 1 4 9 11 8 7 10 12 9 4 1 0 0
0 0 1 7 17 29 39 45 48 46 42 35 29 25 23 22 22 20 19 19 16 11 9 14 14 5 0 0 0 0 0 1 6 9 6 5 8 9 6 3 1 0 0
0 0 0 2 8 19 30 38 40 41 41 38 35 32 29 26 24 21 19 16 10 3 1 2 3 2 0 0 0 0 0 1 5 7 5 4 6 7 5 2 1 0 1
0 0 0 0 2 9 20 29 32 33 37 38 35 33 30 26 23 20 16 12 7 2 0 0 0 0 0 0 0 0 0 2 4 5 4 2 4 5 5 2 1 1 1
0 0 0 0 0 3 10 20 24 28 34 37 35 31 29 26 21 17 15 12 7 2 0 0 0 0 0 0 0 1 1 2 3 3 3 2 2 4 4 2 1 2 2
0 0 0 0 0 0 4 9 15 20 27 32 32 29 27 25 19 13 11 11 7 3 1 0 0 0 0 0 1 2 2 3 2 2 2 3 2 2 2 2 2 2 3
0 0 0 0 0 1 2 4 7 11 18 23 26 25 23 21 16 9 6 6 5 3 1 0 0 0 0 1 1 2 3 3 3 3 2 2 1 1 1 2 2 3 3
0 0 0 0 0 1 4 7 7 8 12 16 20 21 18 15 11 6 3 2 2 1 0 0 0 0 0 1 1 1 1 2 2 3 2 1 1 0 1 1 1 2 2
0 0 0 0 0 1 4 9 11 12 13 15 16 16 13 8 6 4 2 1 0 0 0 0 0 0 0 0 0 0 0 0 1 1 1 1 0 0 0 0 0 1 1
-0 -0 -0 0 0 1 3 6 10 14 18 19 17 13 9 4 2 2 1 0 0 0 0 0 0 0 0 0 0 0 0 0 0 0 0 0 0 0 0 0 0 0 0
0 0 -0 0 1 1 1 2 5 10 17 22 20 14 7 2 1 1 0 0 0 0 0 0 0 0 0 0 0 0 0 0 0 0 0 0 0 0 0 0 0 0 0
0 0 0 0 1 3 2 1 1 3 9 16 19 14 7 2 1 0 0 0 0 0 0 0 0 0 0 0 0 0 0 0 0 0 0 0 0 0 0 0 0 0 0
0 0 0 0 2 4 3 1 0 1 3 8 12 12 7 3 1 0 0 0 0 0 0 0 0 0 0 0 0 0 0 0 0 0 0 0 0 0 0 0 0 0 0
0 0 0 0 1 3 4 2 0 0 1 3 6 7 5 2 1 0 0 0 0 0 0 0 0 0 0 0 0 0 0 0 0 0 0 0 0 0 0 0 0 0 0
0 0 0 0 0 1 2 1 0 0 0 1 3 4 3 2 0 0 0 0 0 0 0 0 0 0 0 0 0 0 0 0 0 0 0 0 0 0 0 0 0 0 0
Wind_Speed
6 6 6 9 11 13 13 13 13 14 14 13 12 10 9 8 8 8 8 8 8 8 8 8 9 14 16 16 16 16 16 14 13 11 11 12 13 15 13 9 8 13 14
3 8 7 7 10 10 10 11 13 13 14 13 12 11 10 9 9 9 9 9 9 10 10 10 11 15 17 16 16 15 13 12 13 10 10 10 11 13 14 8 10 13 15
5 8 8 6 7 9 10 10 11 12 12 12 12 11 11 10 10 10 11 11 11 11 11 12 13 17 18 17 15 14 12 12 11 10 10 11 12 13 13 10 14 15 16
5 7 8 7 7 9 10 11 11 12 13 13 12 12 12 12 12 12 13 12 13 13 13 14 14 17 17 16 16 15 12 12 9 9 10 10 12 14 15 16 16 16 16
5 6 6 6 8 10 10 11 11 12 13 13 12 13 13 13 13 14 13 12 13 14 15 16 16 17 17 17 16 14 13 11 7 8 8 9 11 15 18 18 17 15 15
5 4 4 6 8 10 11 12 12 12 13 13 13 14 14 14 13 12 11 12 13 15 17 16 17 18 18 18 18 15 13 11 7 7 7 8 10 15 18 17 15 15 15
6 4 3 5 8 10 11 12 13 14 14 13 13 13 13 13 11 10 10 11 13 15 17 16 17 18 19 19 17 15 13 8 5 6 7 9 10 16 19 19 18 18 19
6 5 5 5 6 9 10 10 12 13 13 13 13 11 12 13 12 11 11 12 13 15 16 16 19 20 21 21 17 14 10 5 5 6 7 8 12 18 21 22 21 21 21
7 6 7 7 8 8 8 7 9 11 11 11 11 11 11 10 11 12 10 10 12 16 17 19 21 20 21 21 18 15 10 6 6 6 7 7 13 19 21 21 22 23 23
9 9 9 9 9 10 10 9 8 9 10 9 9 9 9 9 10 10 8 9 11 15 18 22 23 22 21 18 16 13 10 4 6 6 5 7 13 20 21 22 22 22 23
11 12 11 11 11 10 10 10 10 10 11 10 10 10 9 9 10 10 7 5 8 13 18 22 23 22 21 15 14 12 7 3 6 4 4 6 12 19 22 23 22 21 20
15 13 12 14 13 12 10 9 11 11 12 12 12 12 11 10 8 6 3 2 3 9 12 18 23 22 14 7 7 7 5 2 3 4 4 6 13 18 21 23 23 23 19
21 17 14 15 15 13 10 9 8 8 10 11 14 14 11 9 7 6 5 5 5 7 5 5 11 11 9 6 4 2 1 1 1 2 5 6 12 17 21 23 23 24 21
24 22 19 17 16 16 12 9 9 8 10 10 13 14 11 9 7 7 5 5 5 4 4 3 4 9 10 9 7 4 3 1 1 1 4 5 12 16 20 22 23 23 22
23 24 23 18 15 17 14 10 10 10 11 12 13 13 13 10 9 8 6 6 6 6 7 8 6 9 9 10 9 8 6 5 4 4 4 3 7 13 18 21 23 24 23
23 23 22 19 16 16 16 14 11 10 11 13 12 14 15 12 9 9 8 8 9 7 7 8 8 10 11 10 8 7 7 8 6 4 5 3 4 9 14 21 23 24 24
22 22 22 19 16 14 14 15 11 9 10 11 12 14 15 14 12 11 9 8 9 10 9 9 9 10 9 11 9 7 5 7 6 5 5 4 3 6 11 16 19 21 21
23 23 22 18 18 16 12 11 10 10 10 10 10 13 16 16 15 12 10 8 9 11 9 9 10 11 10 11 10 9 6 6 8 6 4 5 4 3 8 13 16 18 19
24 24 23 22 20 19 15 10 9 11 12 10 10 11 14 16 16 12 10 9 10 10 11 10 10 13 11 11 9 8 7 6 6 7 6 5 5 4 5 7 12 13 15
23 25 23 19 20 20 15 12 9 12 12 11 10 11 13 14 15 13 10 11 11 10 10 11 11 11 12 10 8 8 7 6 5 6 8 6 6 6 5 6 7 6 10
21 23 23 21 20 18 14 13 12 11 11 12 11 14 15 14 16 14 11 13 12 12 14 13 12 12 11 11 10 7 5 5 5 5 5 6 6 6 6 5 6 4 5
19 21 21 19 18 15 13 14 14 12 13 13 13 14 15 16 17 14 13 13 14 13 14 12 11 8 7 12 12 10 5 3 1 2 4 5 6 6 5 6 7 6 5
18 19 19 21 19 15 14 12 14 18 15 12 12 14 15 16 17 18 17 15 15 14 14 17 14 12 10 9 12 13 13 9 5 0 2 3 6 7 6 6 7 7 6
19 18 20 20 19 15 14 11 11 12 16 17 13 13 16 17 18 19 18 17 16 14 16 16 17 13 14 11 9 9 9 9 8 4 0 1 2 4 6 5 5 6 6
21 19 19 20 19 17 15 14 11 10 13 16 15 15 16 16 16 18 19 19 18 16 17 18 18 15 13 14 13 9 7 9 12 8 6 2 1 1 2 6 6 5 5
21 19 18 18 20 19 19 20 16 12 12 15 19 14 12 13 15 18 19 19 19 18 19 19 19 18 15 14 14 11 10 12 13 12 11 7 6 2 1 3 5 5 4
Wind_Direction
197 175 183 206 200 190 187 189 186 188 191 188 182 184 196 204 210 221 231 241 247 249 244 248 218 186 181 175 163 158 155 155 148 144 140 132 126 125 125 130 142 118 117
162 171 165 192 190 192 193 189 188 188 189 191 192 193 200 209 215 218 224 228 237 244 243 239 214 187 183 174 164 160 154 146 141 144 142 136 128 129 132 143 121 118 117
173 169 167 183 182 189 192 192 192 188 194 203 205 203 206 211 217 222 224 221 228 235 239 236 213 187 186 175 159 150 148 142 141 146 163 155 139 138 138 132 120 128 123
183 175 178 167 191 197 198 196 199 199 201 206 210 212 213 212 215 221 226 222 222 228 232 233 211 187 185 169 149 147 150 140 136 151 182 159 147 149 146 139 133 130 124
189 182 176 160 200 202 200 205 208 204 202 205 214 219 218 218 220 225 225 225 222 225 226 229 201 184 177 159 142 141 142 131 132 181 177 160 156 154 153 146 139 133 122
206 200 175 184 203 213 213 210 212 211 206 208 212 218 223 222 222 228 223 226 227 226 222 216 189 175 169 150 139 138 135 133 156 193 174 163 168 155 151 143 131 121 117
221 215 205 207 217 219 223 223 216 210 210 212 211 216 228 234 227 223 227 232 230 223 217 202 179 171 160 143 140 138 130 137 188 182 168 169 157 151 147 136 129 122 120
235 229 229 225 229 224 227 225 215 213 216 217 217 217 224 231 226 222 229 238 229 211 204 186 167 164 152 137 138 134 119 156 200 176 156 154 141 149 144 135 127 121 118
244 241 233 231 229 223 221 211 210 207 213 212 209 213 215 218 215 216 224 233 226 197 186 171 158 153 145 139 137 127 130 179 185 160 153 135 145 146 141 135 129 122 114
254 249 242 231 229 230 220 209 209 202 198 200 198 203 210 212 206 213 223 227 221 193 172 159 155 143 128 123 119 118 116 171 166 158 146 132 146 141 136 130 123 119 115
267 259 257 249 237 236 233 215 208 205 197 196 194 196 206 215 207 205 205 226 211 191 171 157 153 133 117 115 111 102 104 127 164 153 130 133 149 139 133 126 122 116 112
309 282 263 261 253 247 238 228 218 211 205 207 207 203 210 217 210 200 148 112 149 159 151 152 141 122 112 108 89 85 96 89 150 147 111 137 150 143 133 125 121 117 118
342 321 296 267 255 249 245 238 229 214 208 208 214 212 208 211 203 191 169 161 133 118 131 143 137 126 126 117 83 44 76 115 122 137 100 130 142 138 131 126 126 126 129
2 348 325 295 266 248 239 237 231 226 214 205 209 209 207 204 202 199 179 161 146 130 125 126 119 125 133 137 138 155 208 195 334 76 102 125 136 136 132 131 132 137 141
1 355 348 325 287 264 245 232 230 221 223 218 207 203 207 209 203 199 176 165 149 149 143 134 145 136 143 148 160 161 179 152 148 71 77 119 148 141 138 137 138 138 133
353 350 350 346 320 287 266 244 232 224 226 223 215 207 206 211 207 197 184 174 158 162 153 150 167 161 152 152 161 163 169 134 125 88 54 62 145 146 144 140 138 135 135
352 348 348 347 335 309 280 263 245 239 228 228 218 214 206 204 200 195 187 181 168 167 162 146 160 155 157 143 161 160 171 123 116 119 96 88 100 134 143 138 136 136 137
351 348 345 344 340 327 297 271 255 244 235 231 230 217 210 203 198 194 189 180 171 166 164 157 160 147 162 156 164 162 151 128 136 135 116 97 87 129 138 136 135 135 140
351 346 342 341 340 335 314 281 257 250 241 227 233 226 213 205 198 191 189 173 170 163 163 169 171 154 158 164 163 148 139 148 146 147 140 121 102 105 123 117 116 130 140
351 349 347 345 342 335 324 305 271 247 236 226 226 226 219 206 195 190 181 171 170 164 163 170 171 161 156 152 140 132 139 147 152 156 149 148 141 122 97 80 93 109 137
349 352 349 347 346 340 331 326 315 285 249 224 221 224 219 205 195 187 174 171 175 171 167 170 160 161 151 144 129 106 87 115 148 152 153 153 147 131 118 106 96 95 106
343 351 349 344 343 342 339 328 320 306 284 244 218 222 215 206 196 187 176 174 172 170 163 163 157 154 154 168 153 146 132 105 106 172 174 164 144 133 129 127 126 120 112
337 342 340 337 332 334 334 336 332 328 313 281 227 212 212 208 198 188 179 176 171 171 165 162 163 175 164 175 175 167 166 170 145 346 203 162 150 149 141 135 138 137 134
329 334 329 330 325 324 324 323 332 320 308 304 283 229 203 207 206 192 179 175 172 175 172 170 168 178 173 167 182 189 178 143 157 146 199 66 129 150 154 139 143 144 147
325 328 322 322 318 317 311 305 312 307 305 303 297 271 215 198 199 195 183 173 175 179 177 175 177 177 182 175 179 181 165 162 178 159 158 143 77 97 150 155 153 150 152
317 317 309 307 310 308 309 302 302 304 307 308 305 298 260 206 190 192 188 179 178 180 179 178 180 181 179 186 182 182 182 180 178 170 165 159 141 130 127 170 161 155 151